Change the Weather History Date:

Sunday, January 27, 2013

  Actual Average Record
Temperature  
Mean Temperature 73 °F -  
Max Temperature 77 °F 75 °F 80 °F (1997)
Min Temperature 69 °F 66 °F 62 °F (1998)
Cooling Degree Days 8    
Growing Degree Days 23 (Base 50)    
Moisture  
Dew Point 64 °F    
Average Humidity 74    
Maximum Humidity 82    
Minimum Humidity 64    
Precipitation  
Precipitation 1.03 in - - ()
Sea Level Pressure  
Sea Level Pressure 29.95 in    
Wind  
Wind Speed 9 mph (NW)    
Max Wind Speed 23 mph    
Max Gust Speed 28 mph    
Visibility 7 miles    
Events Rain    
Averages and records for this station are not official NWS values.
T = Trace of Precipitation, MM = Missing Value Source: NWS Daily Summary

Daily Weather History Graph

Daily Weather History Graph

Search for Another Location

Airport or City:

Trip Planner

Search our weather history database for the weather conditions in past years. The results will help you decide how hot, cold, wet, or windy it might be!

Date:

Astronomy

Jan. 27, 2013 Rise Set
Actual Time 7:09 AM HST 6:18 PM HST
Civil Twilight 6:46 AM HST 6:41 PM HST
Nautical Twilight 6:19 AM HST 7:08 PM HST
Astronomical Twilight 5:53 AM HST 7:34 PM HST
Moon 7:09 PM HST (1/27) 7:20 AM HST (1/27)
Length of Visible Light 11h 55m
Length of Day
11h 08m
Waxing Gibbous, 99% of the Moon is Illuminated
Jan 27
Waxing Gibbous
Feb 3
Last Quarter
Feb 9
New
Feb 17
First Quarter
Feb 25
Full

Hourly Weather History & Observations

Time (HST) Temp. Dew Point Humidity Pressure Visibility Wind Dir Wind Speed Gust Speed Precip Events Conditions
12:57 AM 73.8 °F 62.1 °F 67% 29.94 in - South 6.9 mph - N/A   Mostly Cloudy
1:57 AM 73.4 °F 62.1 °F 68% 29.92 in 10.0 mi South 9.2 mph - N/A   Scattered Clouds
2:57 AM 72.9 °F 62.1 °F 69% 29.92 in 10.0 mi South 8.1 mph 17.3 mph N/A   Mostly Cloudy
3:57 AM 72.3 °F 63.0 °F 72% 29.92 in 10.0 mi South 9.2 mph - 0.00 in   Overcast
4:57 AM 73.9 °F 63.0 °F 68% 29.91 in 7.0 mi South 8.1 mph - 0.00 in   Mostly Cloudy
5:57 AM 74.1 °F 63.0 °F 68% 29.92 in 7.0 mi South 4.6 mph - N/A   Overcast
6:57 AM 74.7 °F 63.0 °F 67% 29.94 in 7.0 mi SSE 5.8 mph - 0.00 in   Overcast
7:57 AM 74.7 °F 64.0 °F 69% 29.94 in 7.0 mi SSE 8.1 mph - 0.00 in   Overcast
8:57 AM 74.7 °F 64.9 °F 72% 29.96 in 7.0 mi South 5.8 mph - 0.00 in   Overcast
9:57 AM 76.3 °F 64.0 °F 66% 29.96 in 10.0 mi SSE 6.9 mph - 0.00 in Rain Light Rain
10:57 AM 77.0 °F 66.0 °F 69% 29.95 in 10.0 mi South 6.9 mph - 0.00 in   Overcast
11:57 AM 77.0 °F 64.0 °F 64% 29.92 in 10.0 mi South 6.9 mph - 0.01 in Rain Light Rain
12:57 PM 77.0 °F 66.0 °F 69% 29.89 in - SSE 5.8 mph - 0.00 in Rain Light Rain
1:57 PM 77.0 °F 64.9 °F 66% 29.86 in 10.0 mi SSE 10.4 mph 25.3 mph 0.02 in Rain Light Rain
2:00 PM - - N/A% - - North - - N/A   Unknown
2:57 PM 77.0 °F 64.9 °F 66% 29.86 in 10.0 mi SE 5.8 mph - 0.04 in Rain Light Rain
3:57 PM 74.1 °F 68.0 °F 81% 29.87 in 10.0 mi SSW 9.2 mph - 0.04 in Rain Light Rain
4:37 PM 73.4 °F 66.2 °F 78% 29.89 in 6.2 mi North 4.6 mph - 0.34 in Rain Light Rain
4:57 PM 74.1 °F 66.0 °F 76% 29.88 in 7.0 mi North 3.5 mph - 0.34 in Rain Light Rain
5:57 PM 73.4 °F 66.9 °F 80% 29.89 in 7.0 mi North 9.2 mph - 0.01 in   Overcast
6:48 PM 73.4 °F 66.2 °F 78% 29.94 in 6.2 mi North 19.6 mph 24.2 mph 0.02 in   Overcast
6:57 PM 73.4 °F 66.9 °F 80% 29.94 in 7.0 mi North 19.6 mph 25.3 mph 0.02 in   Overcast
7:04 PM 73.4 °F 66.2 °F 78% 29.95 in 4.0 mi North 23.0 mph - 0.01 in Rain Rain
7:14 PM 73.4 °F 66.2 °F 78% 29.95 in 4.0 mi North 20.7 mph 27.6 mph 0.05 in Rain Rain
7:57 PM 73.4 °F 66.0 °F 78% 29.98 in 6.0 mi North 18.4 mph 24.2 mph 0.15 in Rain Light Rain
8:17 PM 71.6 °F 64.4 °F 78% 30.00 in 1.5 mi NNW 15.0 mph - 0.02 in Rain Light Rain
8:27 PM 71.6 °F 64.4 °F 78% 30.00 in 5.0 mi NNW 15.0 mph - 0.04 in Rain Light Rain
8:57 PM 69.8 °F 64.0 °F 82% 30.00 in 5.0 mi NNW 20.7 mph - 0.10 in Rain Light Rain
9:57 PM 69.8 °F 64.0 °F 82% 30.02 in 5.0 mi North 10.4 mph - 0.20 in Rain Light Rain
10:04 PM 69.8 °F 62.6 °F 78% 30.03 in 5.0 mi North 13.8 mph - 0.02 in Rain Light Rain
10:46 PM 69.8 °F 62.6 °F 78% 30.02 in 6.0 mi North 8.1 mph - 0.07 in Rain Light Rain
10:57 PM 69.8 °F 62.1 °F 76% 30.01 in 6.0 mi NNW 6.9 mph - 0.09 in Rain Light Rain
11:31 PM 69.8 °F 62.6 °F 78% 30.01 in 6.0 mi NW 5.8 mph - 0.01 in Rain Light Rain
11:41 PM 69.8 °F 62.6 °F 78% 30.01 in 6.0 mi NW 6.9 mph - 0.01 in Rain Light Rain
11:49 PM 69.8 °F 62.6 °F 78% 30.00 in 6.0 mi West 5.8 mph - 0.01 in Rain Light Rain
11:57 PM 69.8 °F 62.1 °F 76% 29.99 in 6.0 mi WNW 6.9 mph - 0.01 in Rain Light Rain